[[{"header":{"parameterUnit":"m.s-1","parameterCategory":1,"la1":30.2991,"la2":30.254,"lo1":-89.0895,"lo2":-89.0444,"dy":0.0017,"dx":0.0017,"nx":28,"ny":28,"refTime":"2024-10-19T21:00:00:Z","depth":0,"parameterNumber":2,"parameterNumberName":"U-component_of_WINDS"},"data":[0,0,0,0,0,0,0,0,0,0,0,0,0,0,0,0,0,0,0,0,0,0,0,0,0,0,0,0,0,0,0,0,0,0,0,0,0,0,0,0,0,0,0,0,0,0,0,0,0,0,0,0,0,0,0,0,0,0,-3.8894,-3.8894,0,-3.8908,-3.8908,-3.8908,-3.8737,-3.8732,-3.8727,-3.8723,-3.874,-3.8745,-3.8749,0,0,0,0,0,0,0,0,0,0,0,0,0,-3.8721,-3.8725,-3.8894,-3.8894,-3.8894,-3.8908,-3.8908,-3.8908,-3.8737,-3.8732,-3.8726,-3.8721,-3.8738,-3.8744,-3.875,0,0,0,0,0,0,0,0,0,0,0,0,0,-3.8772,-3.8726,-3.8894,-3.8811,-3.8803,-3.8908,-3.8908,-3.8908,-3.8739,-3.8731,-3.8724,-3.8718,-3.8736,-3.8744,-3.8751,-3.8937,0,0,-3.8773,-3.8776,0,0,0,0,0,0,0,0,-3.8769,-3.8778,-3.8823,-3.8817,-3.8809,-3.8813,-3.8853,-3.8918,-3.874,-3.8763,-3.8723,-3.8714,-3.877,-3.8774,-3.8792,-3.8937,-3.8938,-3.8774,-3.8778,-3.8781,-3.8783,0,0,0,0,0,0,0,-3.8766,-3.8777,-3.8899,-3.8824,-3.8815,-3.8773,-3.8772,-3.8865,-3.8806,-3.8761,-3.8748,-3.8752,-3.8765,-3.8786,-3.8792,-3.8938,-3.8773,-3.878,-3.8784,-3.8787,-3.9235,-3.9243,0,0,0,0,0,0,-3.8773,-3.8775,-3.8899,-3.89,-3.8771,-3.8782,-3.8781,-3.8819,-3.8805,-3.8796,-3.8758,-3.8744,-3.8777,-3.8783,-3.8792,-3.9008,-3.8781,-3.8788,-3.8792,-3.9228,-3.9237,-3.9245,0,0,0,0,0,0,-3.877,-3.8786,-3.8898,-3.8834,-3.8845,-3.8792,-3.8836,-3.8823,-3.8843,-3.8803,-3.8792,-3.879,-3.8772,-3.8781,-3.8901,-3.9007,-3.8791,-3.8798,-3.9219,-3.9231,-3.9241,-3.9444,0,0,0,0,0,0,-3.8766,-3.8786,-3.8856,-3.8837,-3.8849,-3.9009,-3.8842,-3.8828,-3.8856,-3.8838,-3.883,-3.8822,-3.8767,-3.8891,-3.8909,-3.9013,-3.8803,-3.9209,-3.9224,-3.9238,-3.9428,-3.9461,-3.949,0,0,0,0,0,-3.876,-3.8914,-3.8861,-3.8877,-3.8936,-3.9015,-3.9022,-3.8955,-3.8865,-3.8936,-3.8909,-3.8822,-3.8992,-3.8905,-3.8923,-3.9031,-3.9203,-3.922,-3.9237,-3.9414,-3.9455,-3.9489,0,0,0,0,0,0,-3.8948,-3.891,-3.885,-3.9002,-3.9013,-3.8986,-3.9073,-3.9,-3.9038,-3.9019,-3.8935,-3.8934,-3.9069,-3.9061,-3.8965,-3.921,-3.9081,-3.9103,-3.921,-3.9249,-3.9279,-3.9279,-3.8809,0,0,0,0,0,-3.9007,-3.9074,-3.9036,-3.9174,-3.9182,-3.9127,-3.9159,-3.9106,-3.9114,-3.9119,-3.9101,-3.9113,-3.9168,-3.9207,-3.9256,-3.9425,-3.9421,-3.9508,-3.9538,-3.9564,-3.9584,-3.9673,-3.9711,-3.9301,-3.9301,-3.9301,0,0,-3.913,-3.9117,-3.9165,-3.9211,-3.9213,-3.9286,-3.9132,-3.9215,-3.9268,-3.9131,-3.9244,-3.9231,-3.9239,-3.9384,-3.9447,-3.9382,-3.9696,-3.9585,-3.9606,-3.9613,-3.9694,-3.9733,-3.9768,-3.9313,-3.9311,-3.9309,0,0,-3.9391,-3.9387,-3.9501,-3.9506,-3.9511,-3.9472,-3.95,-3.9483,-3.9469,-3.958,-3.9479,-3.954,-3.9638,-3.9648,-3.9666,-3.9928,-3.985,-3.9946,-4.0108,-4.0195,-4.0228,-4.0256,-4.0351,-4.0386,-3.9966,-3.9966,-3.9966,0,-3.9544,-3.9648,-3.9569,-3.9659,-3.9682,-3.9559,-3.9675,-3.9683,-3.9705,-3.9724,-3.965,-3.9769,-3.9766,-3.9912,-3.9975,-3.9993,-4.0023,-3.9948,-4.0229,-4.0257,-4.0282,-4.0372,-4.0407,-3.9978,-3.9977,-3.9975,-3.9974,0,-3.9835,-3.9909,-4.0,-4.0022,-4.0055,-4.0158,-4.0095,-4.0138,-4.0081,-4.0051,-4.0165,-4.0156,-4.0201,-4.0231,-4.0177,-4.0369,-4.0329,-4.0243,-4.0113,-4.0334,-4.0417,-4.0451,-3.9995,-3.9991,-3.9987,-3.9984,0,0,-4.022,-4.0194,-4.023,-4.0238,-4.0233,-4.0288,-4.0384,-4.0426,-4.0466,-4.0483,-4.0562,-4.0646,-4.0567,-4.0587,-4.0532,-4.0609,-4.0818,-4.0513,-4.0512,-4.0572,-4.1031,-4.1097,-4.1138,-4.0764,-4.0771,-4.0775,-4.1031,0,-4.0475,-4.0637,-4.0568,-4.0737,-4.0804,-4.0687,-4.077,-4.0776,-4.075,-4.0803,-4.0772,-4.0834,-4.0724,-4.0735,-4.0805,-4.0778,-4.0909,-4.0758,-4.0839,-4.0843,-4.0844,-4.1181,-4.1252,-4.1493,-4.1062,-4.1068,-4.1071,0,-4.0796,-4.0825,-4.1001,-4.0982,-4.1008,-4.1084,-4.1117,-4.1169,-4.1173,-4.1148,-4.117,-4.1097,-4.119,-4.1058,-4.1185,-4.1084,-4.1112,-4.1103,-4.1111,-4.1118,-4.0973,-4.12,-4.1569,-4.1606,-4.1121,-4.1117,-4.1114,0,-4.106,-4.1144,-4.1259,-4.127,-4.1251,-4.1307,-4.1302,-4.1298,-4.1328,-4.1357,-4.1375,-4.1415,-4.1437,-4.1469,-4.141,-4.1319,-4.1546,-4.1408,-4.1529,-4.1531,-4.1585,-4.1583,-4.1966,-4.1599,-4.1599,-4.1598,-4.1597,0,-4.1355,-4.1468,-4.1378,-4.145,-4.1572,-4.1491,-4.1614,-4.1596,-4.1594,-4.166,-4.156,-4.1625,-4.154,-4.1597,-4.155,-4.1663,-4.1673,-4.1657,-4.1644,-4.1668,-4.167,-4.1688,-4.167,-4.1608,-4.1605,-4.1604,-4.1602,0,-4.1673,-4.1618,-4.1736,-4.1707,-4.1702,-4.1794,-4.177,-4.1835,-4.1799,-4.1885,-4.19,-4.1846,-4.1906,-4.1849,-4.1907,-4.1875,-4.2027,-4.1988,-4.2026,-4.2016,-4.2141,-4.2131,-4.2551,-4.2602,-4.22,-4.2204,-4.2208,0,-4.1866,-4.195,-4.1929,-4.1966,-4.1966,-4.2027,-4.2056,-4.1978,-4.2012,-4.2022,-4.2087,-4.2138,-4.2176,-4.2279,-4.2245,-4.2289,-4.2252,-4.2396,-4.2258,-4.228,-4.2257,-4.2254,-4.2263,-4.2426,-4.243,-4.2434,-4.2437,0,-4.2216,-4.2183,-4.2228,-4.2265,-4.2301,-4.2326,-4.2343,-4.2379,-4.2298,-4.2342,-4.2403,-4.2432,-4.249,-4.2543,-4.2576,-4.257,-4.2493,-4.248,-4.2511,-4.2538,-4.2557,-4.255,-4.2105,-4.2472,-4.2468,-4.2466,-4.2464,-4.2463,-4.2479,-4.2547,-4.2543,-4.2597,-4.2601,-4.2618,-4.2678,-4.2649,-4.2698,-4.2738,-4.2689,-4.2764,-4.2763,-4.2799,-4.2803,-4.286,-4.28,-4.2844,-4.2856,-4.2868,-4.2888,-4.2545,-4.2866,-4.2864,-4.2863,-4.2863,-4.2862,0,-4.2825,-4.2815,-4.2865,-4.2891,-4.2933,-4.2852,-4.2866,-4.2907,-4.2973,-4.2979,-4.3018,-4.3087,-4.3137,-4.3106,-4.315,-4.3202,-4.3167,-4.3216,-4.3213,-4.3213,-4.2938,-4.2908,-4.3244,-4.3244,-4.3244,-4.3243,-4.3243,-4.3243,-4.301,-4.3122,-4.3089,-4.3202,-4.3191,-4.3262,-4.3278,-4.3293,-4.3297,-4.3379,-4.342,-4.3398,-4.339,-4.3431,-4.3474,-4.3463,-4.3485,-4.3548,-4.3526,-4.327,-4.3233,-4.3197,-4.3169,-4.3553,-4.3553,-4.3796,-4.3798,-4.38]},{"header":{"parameterUnit":"m.s-1","parameterCategory":1,"la1":30.2991,"la2":30.254,"lo1":-89.0895,"lo2":-89.0444,"dy":0.0017,"dx":0.0017,"nx":28,"ny":28,"refTime":"2024-10-19T21:00:00:Z","depth":0,"parameterNumber":3,"parameterNumberName":"V-component_of_WINDS"},"data":[0,0,0,0,0,0,0,0,0,0,0,0,0,0,0,0,0,0,0,0,0,0,0,0,0,0,0,0,0,0,0,0,0,0,0,0,0,0,0,0,0,0,0,0,0,0,0,0,0,0,0,0,0,0,0,0,0,0,-3.1566,-3.1567,0,-3.163,-3.163,-3.1631,-3.1627,-3.1627,-3.1626,-3.1625,-3.1687,-3.1689,-3.1692,0,0,0,0,0,0,0,0,0,0,0,0,0,-3.1435,-3.1438,-3.1566,-3.1567,-3.1567,-3.163,-3.1631,-3.1631,-3.1628,-3.1626,-3.1625,-3.1624,-3.1686,-3.1689,-3.1692,0,0,0,0,0,0,0,0,0,0,0,0,0,-3.1495,-3.1439,-3.1566,-3.1573,-3.1574,-3.1629,-3.1631,-3.1632,-3.1628,-3.1626,-3.1625,-3.1624,-3.1685,-3.1688,-3.1692,-3.1743,0,0,-3.1704,-3.1705,0,0,0,0,0,0,0,0,-3.1491,-3.15,-3.1571,-3.1573,-3.1574,-3.1619,-3.1607,-3.1669,-3.1628,-3.1607,-3.1625,-3.1623,-3.1665,-3.167,-3.1685,-3.1746,-3.1748,-3.1704,-3.1706,-3.1708,-3.1709,0,0,0,0,0,0,0,-3.1487,-3.1497,-3.1591,-3.1572,-3.1574,-3.1572,-3.1578,-3.1619,-3.1643,-3.1609,-3.1609,-3.1617,-3.1666,-3.1682,-3.1687,-3.1749,-3.1704,-3.1707,-3.1709,-3.1711,-3.1851,-3.1853,0,0,0,0,0,0,-3.1482,-3.1493,-3.1589,-3.1593,-3.1529,-3.1575,-3.1583,-3.1606,-3.1643,-3.1647,-3.1618,-3.1616,-3.1676,-3.1682,-3.1689,-3.1749,-3.1708,-3.1711,-3.1713,-3.185,-3.1852,-3.1853,0,0,0,0,0,0,-3.1479,-3.1491,-3.1586,-3.1543,-3.1555,-3.1579,-3.1605,-3.1608,-3.1624,-3.1649,-3.1653,-3.163,-3.1675,-3.1684,-3.1729,-3.1751,-3.1713,-3.1716,-3.1848,-3.1851,-3.1853,-3.187,0,0,0,0,0,0,-3.1476,-3.149,-3.1511,-3.1544,-3.1558,-3.1627,-3.1606,-3.161,-3.1631,-3.163,-3.1662,-3.1666,-3.1675,-3.1723,-3.1733,-3.1755,-3.1719,-3.1846,-3.1849,-3.1852,-3.1867,-3.1872,-3.1876,0,0,0,0,0,-3.1471,-3.1513,-3.1512,-3.1523,-3.1584,-3.1628,-3.1636,-3.1646,-3.1633,-3.1653,-3.1669,-3.1665,-3.1747,-3.1728,-3.1739,-3.1762,-3.1845,-3.1848,-3.1852,-3.1865,-3.1871,-3.1876,0,0,0,0,0,0,-3.1481,-3.1517,-3.1517,-3.1571,-3.1597,-3.1628,-3.1654,-3.1653,-3.1682,-3.168,-3.169,-3.1697,-3.1742,-3.1757,-3.1735,-3.1812,-3.1794,-3.18,-3.1801,-3.1807,-3.1811,-3.1806,-3.1722,0,0,0,0,0,-3.149,-3.1524,-3.1553,-3.1598,-3.1611,-3.163,-3.165,-3.1655,-3.1682,-3.1693,-3.1712,-3.1737,-3.1768,-3.1788,-3.1819,-3.187,-3.1875,-3.1891,-3.1895,-3.1899,-3.1903,-3.1929,-3.1935,-3.1864,-3.1864,-3.1864,0,0,-3.1507,-3.1531,-3.1552,-3.16,-3.1621,-3.1654,-3.1639,-3.1676,-3.17,-3.1698,-3.1742,-3.1756,-3.1785,-3.1833,-3.1855,-3.1846,-3.1924,-3.1903,-3.1906,-3.1908,-3.1933,-3.194,-3.1946,-3.1867,-3.1866,-3.1866,0,0,-3.1556,-3.1579,-3.1618,-3.1639,-3.167,-3.1683,-3.1692,-3.1723,-3.1733,-3.1777,-3.1776,-3.1804,-3.1858,-3.1878,-3.1895,-3.1949,-3.1946,-3.1959,-3.1982,-3.2007,-3.2012,-3.2017,-3.2034,-3.2041,-3.1963,-3.1963,-3.1963,0,-3.1574,-3.1626,-3.1637,-3.1674,-3.1694,-3.1694,-3.1732,-3.1751,-3.1791,-3.1804,-3.1794,-3.1861,-3.188,-3.1931,-3.1944,-3.1959,-3.1968,-3.1955,-3.2011,-3.2016,-3.2021,-3.2037,-3.2044,-3.1964,-3.1964,-3.1964,-3.1964,0,-3.1645,-3.168,-3.1707,-3.1746,-3.1769,-3.1806,-3.1821,-3.1843,-3.1846,-3.1858,-3.1902,-3.1925,-3.1959,-3.1972,-3.1975,-3.2023,-3.2016,-3.2009,-3.1991,-3.2029,-3.2044,-3.2051,-3.1966,-3.1966,-3.1965,-3.1965,0,0,-3.1702,-3.1746,-3.1755,-3.1772,-3.1806,-3.1833,-3.1869,-3.1903,-3.192,-3.1947,-3.1975,-3.202,-3.2013,-3.2032,-3.2038,-3.206,-3.2098,-3.2049,-3.205,-3.2056,-3.2149,-3.2153,-3.2161,-3.2097,-3.2098,-3.2099,-3.2146,0,-3.1753,-3.1818,-3.1828,-3.1884,-3.1916,-3.1916,-3.1946,-3.197,-3.1982,-3.2009,-3.2022,-3.2053,-3.2042,-3.2053,-3.2075,-3.2089,-3.2117,-3.2086,-3.2121,-3.2122,-3.2113,-3.2169,-3.2175,-3.2218,-3.2152,-3.2154,-3.2154,0,-3.1822,-3.1851,-3.191,-3.1938,-3.1951,-3.1979,-3.2009,-3.2036,-3.2062,-3.2069,-3.2089,-3.2092,-3.2127,-3.2108,-3.2154,-3.2133,-3.2148,-3.2157,-3.2159,-3.2161,-3.214,-3.2171,-3.2232,-3.2238,-3.2164,-3.2164,-3.2163,0,-3.1855,-3.1909,-3.195,-3.1965,-3.1999,-3.2018,-3.2033,-3.2057,-3.2076,-3.2102,-3.2114,-3.2144,-3.216,-3.2182,-3.2191,-3.2177,-3.2237,-3.2219,-3.2242,-3.2241,-3.2253,-3.2252,-3.2315,-3.2266,-3.2266,-3.2266,-3.2265,0,-3.191,-3.1946,-3.1965,-3.1991,-3.203,-3.2041,-3.2079,-3.2093,-3.2114,-3.214,-3.2142,-3.2167,-3.2179,-3.2205,-3.2212,-3.2248,-3.2256,-3.2261,-3.2263,-3.226,-3.2259,-3.2269,-3.2266,-3.2267,-3.2267,-3.2267,-3.2266,0,-3.1953,-3.1969,-3.2014,-3.2042,-3.205,-3.2077,-3.2101,-3.2124,-3.2136,-3.2169,-3.2178,-3.2196,-3.2226,-3.2238,-3.2275,-3.228,-3.2321,-3.2321,-3.2313,-3.2313,-3.2334,-3.2331,-3.2404,-3.2414,-3.2359,-3.236,-3.236,0,-3.1987,-3.2014,-3.2045,-3.2064,-3.2079,-3.2109,-3.2128,-3.2139,-3.2159,-3.2189,-3.2208,-3.2239,-3.2264,-3.2312,-3.2327,-3.2355,-3.2354,-3.2378,-3.2358,-3.2354,-3.2352,-3.235,-3.2351,-3.2381,-3.2382,-3.2382,-3.2382,0,-3.2044,-3.2049,-3.2078,-3.2108,-3.2131,-3.2155,-3.2179,-3.2193,-3.2208,-3.2229,-3.2261,-3.228,-3.2317,-3.2347,-3.2375,-3.2389,-3.2387,-3.2389,-3.2395,-3.2392,-3.2385,-3.2387,-3.2321,-3.2387,-3.2386,-3.2386,-3.2386,-3.2385,-3.2082,-3.2105,-3.213,-3.2161,-3.218,-3.2201,-3.2224,-3.2239,-3.2266,-3.2298,-3.2302,-3.2335,-3.2357,-3.2395,-3.241,-3.2434,-3.2428,-3.2438,-3.244,-3.2442,-3.2442,-3.2383,-3.244,-3.244,-3.244,-3.244,-3.244,0,-3.2137,-3.2153,-3.2181,-3.2214,-3.2237,-3.2235,-3.2261,-3.228,-3.2309,-3.2331,-3.2355,-3.239,-3.2418,-3.2435,-3.2463,-3.2479,-3.2479,-3.2486,-3.2484,-3.2486,-3.2447,-3.2438,-3.2485,-3.2485,-3.2485,-3.2485,-3.2485,-3.2485,-3.2168,-3.2207,-3.2215,-3.2263,-3.2278,-3.2311,-3.2325,-3.2344,-3.2361,-3.24,-3.2424,-3.2435,-3.2454,-3.2483,-3.2508,-3.2512,-3.2521,-3.2528,-3.2532,-3.2494,-3.249,-3.2485,-3.2476,-3.2531,-3.2531,-3.2569,-3.2569,-3.2569]}]]